This demonstration page uses our WeatherBlox Daily Observations layout. Learn more.

Left ArrowRight Arrow

34.16533, -84.80231

Hourly Observations for May 14, 2017

Temp ( °F °C ) Dew Point ( °F °C ) Humidity (%) Winds ( mph kmh ) Pressure ( in mb ) Visibility ( mi km ) Precip ( " mm )
12:53 am 00:53 Clear 54 12.2 54 12.2 100 100 Calm 29.87 1012 10 16 0.00 0.00
1:53 am 01:53 Clear 52 11.1 52 11.1 100 100 Calm 29.88 1012 10 16 0.00 0.00
2:53 am 02:53 Clear 51 10.6 51 10.6 100 100 Calm 29.88 1012 10 16 0.00 0.00
3:53 am 03:53 Clear 51 10.6 51 10.6 100 100 Calm 29.89 1012 10 16 0.00 0.00
4:53 am 04:53 Clear 50 10 50 10 100 100 Calm 29.91 1013 10 16 0.00 0.00
5:53 am 05:53 Clear 50 10 50 10 100 100 Calm 29.92 1013 10 16 0.00 0.00
6:53 am 06:53 Sunny 50 10 50 10 100 100 Calm 29.95 1014 9 14 0.00 0.00
7:17 am 07:17 Mostly Cloudy 52 11.1 52 11.1 100 100 Calm 30.00 1016 9 14 0.00 0.00
7:53 am 07:53 Mostly Cloudy 56 13.3 55 12.8 97 97 Calm 29.97 1015 10 16 0.00 0.00
8:05 am 08:05 Partly Cloudy 57 13.9 55 12.8 93 93 Calm 30.00 1016 10 16 0.00 0.00
8:53 am 08:53 Sunny 60 15.6 55 12.8 84 84 Calm 29.99 1016 10 16 0.00 0.00
9:53 am 09:53 Sunny 66 18.9 59 15 78 78 Calm 30.01 1016 10 16 0.00 0.00
10:53 am 10:53 Sunny 72 22.2 60 15.6 66 66 VRB 5 7 30.01 1016 10 16 0.00 0.00
11:53 am 11:53 Sunny 74 23.3 62 16.7 67 67 N 6 9 30.01 1016 10 16 0.00 0.00
12:53 pm 12:53 Mostly Cloudy 74 23.3 60 15.6 62 62 NNW 5 7 30.00 1016 10 16 0.00 0.00
1:53 pm 13:53 Mostly Sunny 77 25 60 15.6 56 56 ENE 5 7 29.99 1016 10 16 0.00 0.00
2:53 pm 14:53 Mostly Sunny 78 25.6 59 15 52 52 VRB 3 6 29.98 1015 10 16 0.00 0.00
3:53 pm 15:53 Sunny 80 26.7 59 15 49 49 VRB 3 6 29.96 1015 10 16 0.00 0.00
4:53 pm 16:53 Sunny 80 26.7 56 13.3 44 44 VRB 3 6 29.94 1014 10 16 0.00 0.00
5:53 pm 17:53 Sunny 80 26.7 57 13.9 45 45 SSE 5 7 29.93 1014 10 16 0.00 0.00
6:53 pm 18:53 Sunny 81 27.2 56 13.3 42 42 Calm 29.93 1014 10 16 0.00 0.00
7:53 pm 19:53 Sunny 73 22.8 63 17.2 71 71 Calm 29.92 1013 10 16 0.00 0.00
8:53 pm 20:53 Clear 65 18.3 63 17.2 93 93 Calm 29.93 1014 10 16 0.00 0.00
9:53 pm 21:53 Clear 63 17.2 61 16.1 93 93 Calm 29.94 1014 10 16 0.00 0.00
10:53 pm 22:53 Clear 61 16.1 61 16.1 100 100 Calm 29.95 1014 10 16 0.00 0.00
11:53 pm 23:53 Clear 60 15.6 60 15.6 100 100 Calm 29.96 1014 10 16 0.00 0.00

Powered by AerisWeather